Year,Month,Day,Hour,Minute,Value (Times are PST for temperature in C)
2013,08,20,00,00,11.70
2013,08,20,00,01,11.70
2013,08,20,00,02,11.60
2013,08,20,00,03,11.60
2013,08,20,00,04,11.60
2013,08,20,00,05,11.60
2013,08,20,00,06,11.60
2013,08,20,00,07,11.60
2013,08,20,00,08,11.60
2013,08,20,00,09,11.60
2013,08,20,00,10,11.50
2013,08,20,00,11,11.50
2013,08,20,00,12,11.50
2013,08,20,00,13,11.50
2013,08,20,00,14,11.40
2013,08,20,00,15,11.40
2013,08,20,00,16,11.40
2013,08,20,00,17,11.40
2013,08,20,00,18,11.40
2013,08,20,00,19,11.40
2013,08,20,00,20,11.40
2013,08,20,00,21,11.40
2013,08,20,00,22,11.40
2013,08,20,00,23,11.40
2013,08,20,00,24,11.40
2013,08,20,00,25,11.40
2013,08,20,00,26,11.30
2013,08,20,00,27,11.30
2013,08,20,00,28,11.30
2013,08,20,00,29,11.30
2013,08,20,00,30,11.30
2013,08,20,00,31,11.30
2013,08,20,00,32,11.30
2013,08,20,00,33,11.30
2013,08,20,00,34,11.30
2013,08,20,00,35,11.20
2013,08,20,00,36,11.20
2013,08,20,00,37,11.20
2013,08,20,00,38,11.20
2013,08,20,00,39,11.20
2013,08,20,00,40,11.20
2013,08,20,00,41,11.20
2013,08,20,00,42,11.20
2013,08,20,00,43,11.20
2013,08,20,00,44,11.20
2013,08,20,00,45,11.20
2013,08,20,00,46,11.20
2013,08,20,00,47,11.20
2013,08,20,00,48,11.20
2013,08,20,00,49,11.20
2013,08,20,00,50,11.20
2013,08,20,00,51,11.20
2013,08,20,00,52,11.20
2013,08,20,00,53,11.20
2013,08,20,00,54,11.20
2013,08,20,00,55,11.20
2013,08,20,00,56,11.20
2013,08,20,00,57,11.20
2013,08,20,00,58,11.20
2013,08,20,00,59,11.20
2013,08,20,01,00,11.20
2013,08,20,01,01,11.20
2013,08,20,01,02,11.20
2013,08,20,01,03,11.20
2013,08,20,01,04,11.20
2013,08,20,01,05,11.20
2013,08,20,01,06,11.20
2013,08,20,01,07,11.20
2013,08,20,01,08,11.20
2013,08,20,01,09,11.20
2013,08,20,01,10,11.20
2013,08,20,01,11,11.20
2013,08,20,01,12,11.20
2013,08,20,01,13,11.20
2013,08,20,01,14,11.20
2013,08,20,01,15,11.20
2013,08,20,01,16,11.20
2013,08,20,01,17,11.20
2013,08,20,01,18,11.20
2013,08,20,01,19,11.20
2013,08,20,01,20,11.20
2013,08,20,01,21,11.20
2013,08,20,01,22,11.20
2013,08,20,01,23,11.20
2013,08,20,01,24,11.20
2013,08,20,01,25,11.20
2013,08,20,01,26,11.20
2013,08,20,01,27,11.20
2013,08,20,01,28,11.20
2013,08,20,01,29,11.20
2013,08,20,01,30,11.20
2013,08,20,01,31,11.20
2013,08,20,01,32,11.20
2013,08,20,01,33,11.20
2013,08,20,01,34,11.10
2013,08,20,01,35,11.10
2013,08,20,01,36,11.10
2013,08,20,01,37,11.10
2013,08,20,01,38,11.10
2013,08,20,01,39,11.10
2013,08,20,01,40,11.10
2013,08,20,01,41,11.10
2013,08,20,01,42,11.10
2013,08,20,01,43,11.10
2013,08,20,01,44,11.10
2013,08,20,01,45,11.10
2013,08,20,01,46,11.10
2013,08,20,01,47,11.10
2013,08,20,01,48,11.00
2013,08,20,01,49,11.00
2013,08,20,01,50,11.00
2013,08,20,01,51,11.00
2013,08,20,01,52,11.00
2013,08,20,01,53,11.00
2013,08,20,01,54,11.00
2013,08,20,01,55,11.00
2013,08,20,01,56,11.00
2013,08,20,01,57,11.00
2013,08,20,01,58,11.00
2013,08,20,01,59,11.00
2013,08,20,02,00,11.00
2013,08,20,02,01,11.00
2013,08,20,02,02,11.00
2013,08,20,02,03,11.00
2013,08,20,02,04,10.90
2013,08,20,02,05,10.90
2013,08,20,02,06,10.90
2013,08,20,02,07,10.90
2013,08,20,02,08,10.90
2013,08,20,02,09,10.90
2013,08,20,02,10,10.80
2013,08,20,02,11,10.80
2013,08,20,02,12,10.80
2013,08,20,02,13,10.80
2013,08,20,02,14,10.80
2013,08,20,02,15,10.80
2013,08,20,02,16,10.80
2013,08,20,02,17,10.80
2013,08,20,02,18,10.70
2013,08,20,02,19,10.70
2013,08,20,02,20,10.70
2013,08,20,02,21,10.70
2013,08,20,02,22,10.70
2013,08,20,02,23,10.70
2013,08,20,02,24,10.60
2013,08,20,02,25,10.60
2013,08,20,02,26,10.60
2013,08,20,02,27,10.60
2013,08,20,02,28,10.60
2013,08,20,02,29,10.60
2013,08,20,02,30,10.50
2013,08,20,02,31,10.50
2013,08,20,02,32,10.50
2013,08,20,02,33,10.50
2013,08,20,02,34,10.40
2013,08,20,02,35,10.40
2013,08,20,02,36,10.40
2013,08,20,02,37,10.40
2013,08,20,02,38,10.40
2013,08,20,02,39,10.40
2013,08,20,02,40,10.40
2013,08,20,02,41,10.40
2013,08,20,02,42,10.40
2013,08,20,02,43,10.40
2013,08,20,02,44,10.30
2013,08,20,02,45,10.30
2013,08,20,02,46,10.30
2013,08,20,02,47,10.30
2013,08,20,02,48,10.30
2013,08,20,02,49,10.30
2013,08,20,02,50,10.30
2013,08,20,02,51,10.30
2013,08,20,02,52,10.20
2013,08,20,02,53,10.20
2013,08,20,02,54,10.20
2013,08,20,02,55,10.20
2013,08,20,02,56,10.20
2013,08,20,02,57,10.20
2013,08,20,02,58,10.20
2013,08,20,02,59,10.20
2013,08,20,03,00,10.20
2013,08,20,03,01,10.20
2013,08,20,03,02,10.10
2013,08,20,03,03,10.10
2013,08,20,03,04,10.10
2013,08,20,03,05,10.10
2013,08,20,03,06,10.10
2013,08,20,03,07,10.10
2013,08,20,03,08,10.10
2013,08,20,03,09,10.10
2013,08,20,03,10,10.00
2013,08,20,03,11,10.00
2013,08,20,03,12,10.00
2013,08,20,03,13,10.00
2013,08,20,03,14,10.00
2013,08,20,03,15,10.00
2013,08,20,03,16,9.90
2013,08,20,03,17,9.90
2013,08,20,03,18,9.90
2013,08,20,03,19,9.90
2013,08,20,03,20,9.90
2013,08,20,03,21,9.90
2013,08,20,03,22,9.90
2013,08,20,03,23,9.90
2013,08,20,03,24,9.80
2013,08,20,03,25,9.80
2013,08,20,03,26,9.80
2013,08,20,03,27,9.80
2013,08,20,03,28,9.80
2013,08,20,03,29,9.80
2013,08,20,03,30,9.80
2013,08,20,03,31,9.80
2013,08,20,03,32,9.80
2013,08,20,03,33,9.80
2013,08,20,03,34,9.80
2013,08,20,03,35,9.80
2013,08,20,03,36,9.80
2013,08,20,03,37,9.80
2013,08,20,03,38,9.80
2013,08,20,03,39,9.80
2013,08,20,03,40,9.80
2013,08,20,03,41,9.80
2013,08,20,03,42,9.80
2013,08,20,03,43,9.80
2013,08,20,03,44,9.80
2013,08,20,03,45,9.80
2013,08,20,03,46,9.90
2013,08,20,03,47,9.90
2013,08,20,03,48,9.90
2013,08,20,03,49,9.90
2013,08,20,03,50,9.90
2013,08,20,03,51,9.90
2013,08,20,03,52,9.90
2013,08,20,03,53,9.90
2013,08,20,03,54,9.90
2013,08,20,03,55,9.90
2013,08,20,03,56,9.90
2013,08,20,03,57,9.90
2013,08,20,03,58,9.90
2013,08,20,03,59,9.90
2013,08,20,04,00,9.90
2013,08,20,04,01,9.90
2013,08,20,04,02,9.90
2013,08,20,04,03,9.90
2013,08,20,04,04,9.90
2013,08,20,04,05,9.90
2013,08,20,04,06,9.90
2013,08,20,04,07,9.90
2013,08,20,04,08,9.90
2013,08,20,04,09,9.90
2013,08,20,04,10,9.90
2013,08,20,04,11,9.90
2013,08,20,04,12,9.90
2013,08,20,04,13,9.90
2013,08,20,04,14,9.90
2013,08,20,04,15,10.00
2013,08,20,04,16,10.00
2013,08,20,04,17,10.00
2013,08,20,04,18,10.00
2013,08,20,04,19,10.00
2013,08,20,04,20,10.00
2013,08,20,04,21,10.00
2013,08,20,04,22,10.00
2013,08,20,04,23,9.90
2013,08,20,04,24,10.00
2013,08,20,04,25,9.90
2013,08,20,04,26,9.90
2013,08,20,04,27,9.90
2013,08,20,04,28,9.90
2013,08,20,04,29,9.90
2013,08,20,04,30,9.90
2013,08,20,04,31,9.90
2013,08,20,04,32,9.90
2013,08,20,04,33,9.90
2013,08,20,04,34,9.90
2013,08,20,04,35,9.90
2013,08,20,04,36,9.90
2013,08,20,04,37,9.90
2013,08,20,04,38,9.90
2013,08,20,04,39,9.90
2013,08,20,04,40,9.90
2013,08,20,04,41,9.90
2013,08,20,04,42,9.90
2013,08,20,04,43,9.90
2013,08,20,04,44,9.90
2013,08,20,04,45,9.90
2013,08,20,04,46,9.90
2013,08,20,04,47,9.90
2013,08,20,04,48,9.90
2013,08,20,04,49,9.90
2013,08,20,04,50,9.90
2013,08,20,04,51,9.90
2013,08,20,04,52,9.90
2013,08,20,04,53,9.90
2013,08,20,04,54,9.90
2013,08,20,04,55,9.90
2013,08,20,04,56,9.90
2013,08,20,04,57,9.90
2013,08,20,04,58,9.90
2013,08,20,04,59,9.80
2013,08,20,05,00,9.80
2013,08,20,05,01,9.80
2013,08,20,05,02,9.80
2013,08,20,05,03,9.80
2013,08,20,05,04,9.80
2013,08,20,05,05,9.80
2013,08,20,05,06,9.80
2013,08,20,05,07,9.80
2013,08,20,05,08,9.80
2013,08,20,05,09,9.80
2013,08,20,05,10,9.70
2013,08,20,05,11,9.70
2013,08,20,05,12,9.70
2013,08,20,05,13,9.70
2013,08,20,05,14,9.70
2013,08,20,05,15,9.70
2013,08,20,05,16,9.70
2013,08,20,05,17,9.70
2013,08,20,05,18,9.70
2013,08,20,05,19,9.60
2013,08,20,05,20,9.60
2013,08,20,05,21,9.60
2013,08,20,05,22,9.60
2013,08,20,05,23,9.60
2013,08,20,05,24,9.60
2013,08,20,05,25,9.60
2013,08,20,05,26,9.60
2013,08,20,05,27,9.50
2013,08,20,05,28,9.50
2013,08,20,05,29,9.50
2013,08,20,05,30,9.50
2013,08,20,05,31,9.40
2013,08,20,05,32,9.40
2013,08,20,05,33,9.40
2013,08,20,05,34,9.40
2013,08,20,05,35,9.40
2013,08,20,05,36,9.40
2013,08,20,05,37,9.40
2013,08,20,05,38,9.40
2013,08,20,05,39,9.40
2013,08,20,05,40,9.40
2013,08,20,05,41,9.40
2013,08,20,05,42,9.30
2013,08,20,05,43,9.30
2013,08,20,05,44,9.30
2013,08,20,05,45,9.30
2013,08,20,05,46,9.30
2013,08,20,05,47,9.30
2013,08,20,05,48,9.30
2013,08,20,05,49,9.30
2013,08,20,05,50,9.20
2013,08,20,05,51,9.20
2013,08,20,05,52,9.20
2013,08,20,05,53,9.20
2013,08,20,05,54,9.20
2013,08,20,05,55,9.20
2013,08,20,05,56,9.20
2013,08,20,05,57,9.20
2013,08,20,05,58,9.20
2013,08,20,05,59,9.10
2013,08,20,06,00,9.10
2013,08,20,06,01,9.10
2013,08,20,06,02,9.10
2013,08,20,06,03,9.10
2013,08,20,06,04,9.10
2013,08,20,06,05,9.10
2013,08,20,06,06,9.10
2013,08,20,06,07,9.10
2013,08,20,06,08,9.10
2013,08,20,06,09,9.10
2013,08,20,06,10,9.10
2013,08,20,06,11,9.20
2013,08,20,06,12,9.20
2013,08,20,06,13,9.20
2013,08,20,06,14,9.20
2013,08,20,06,15,9.20
2013,08,20,06,16,9.20
2013,08,20,06,17,9.20
2013,08,20,06,18,9.20
2013,08,20,06,19,9.20
2013,08,20,06,20,9.20
2013,08,20,06,21,9.30
2013,08,20,06,22,9.30
2013,08,20,06,23,9.30
2013,08,20,06,24,9.30
2013,08,20,06,25,9.30
2013,08,20,06,26,9.30
2013,08,20,06,27,9.30
2013,08,20,06,28,9.30
2013,08,20,06,29,9.30
2013,08,20,06,30,9.30
2013,08,20,06,31,9.30
2013,08,20,06,32,9.30
2013,08,20,06,33,9.30
2013,08,20,06,34,9.30
2013,08,20,06,35,9.40
2013,08,20,06,36,9.40
2013,08,20,06,37,9.40
2013,08,20,06,38,9.40
2013,08,20,06,39,9.40
2013,08,20,06,40,9.40
2013,08,20,06,41,9.40
2013,08,20,06,42,9.50
2013,08,20,06,43,9.50
2013,08,20,06,44,9.50
2013,08,20,06,45,9.50
2013,08,20,06,46,9.50
2013,08,20,06,47,9.60
2013,08,20,06,48,9.60
2013,08,20,06,49,9.60
2013,08,20,06,50,9.70
2013,08,20,06,51,9.70
2013,08,20,06,52,9.70
2013,08,20,06,53,9.70
2013,08,20,06,54,9.70
2013,08,20,06,55,9.70
2013,08,20,06,56,9.80
2013,08,20,06,57,9.80
2013,08,20,06,58,9.80
2013,08,20,06,59,9.80
2013,08,20,07,00,9.80
2013,08,20,07,01,9.80
2013,08,20,07,02,9.80
2013,08,20,07,03,9.80
2013,08,20,07,04,9.80
2013,08,20,07,05,9.80
2013,08,20,07,06,9.80
2013,08,20,07,07,9.80
2013,08,20,07,08,9.80
2013,08,20,07,09,9.80
2013,08,20,07,10,9.80
2013,08,20,07,11,9.80
2013,08,20,07,12,9.80
2013,08,20,07,13,9.80
2013,08,20,07,14,9.80
2013,08,20,07,15,9.90
2013,08,20,07,16,9.90
2013,08,20,07,17,9.90
2013,08,20,07,18,9.90
2013,08,20,07,19,9.90
2013,08,20,07,20,9.90
2013,08,20,07,21,10.00
2013,08,20,07,22,10.00
2013,08,20,07,23,10.00
2013,08,20,07,24,10.10
2013,08,20,07,25,10.10
2013,08,20,07,26,10.10
2013,08,20,07,27,10.10
2013,08,20,07,28,10.10
2013,08,20,07,29,10.20
2013,08,20,07,30,10.20
2013,08,20,07,31,10.20
2013,08,20,07,32,10.20
2013,08,20,07,33,10.20
2013,08,20,07,34,10.20
2013,08,20,07,35,10.30
2013,08,20,07,36,10.30
2013,08,20,07,37,10.30
2013,08,20,07,38,10.30
2013,08,20,07,39,10.30
2013,08,20,07,40,10.30
2013,08,20,07,41,10.30
2013,08,20,07,42,10.30
2013,08,20,07,43,10.40
2013,08,20,07,44,10.40
2013,08,20,07,45,10.40
2013,08,20,07,46,10.40
2013,08,20,07,47,10.40
2013,08,20,07,48,10.50
2013,08,20,07,49,10.50
2013,08,20,07,50,10.50
2013,08,20,07,51,10.60
2013,08,20,07,52,10.60
2013,08,20,07,53,10.60
2013,08,20,07,54,10.70
2013,08,20,07,55,10.70
2013,08,20,07,56,10.70
2013,08,20,07,57,10.70
2013,08,20,07,58,10.70
2013,08,20,07,59,10.80
2013,08,20,08,00,10.80
2013,08,20,08,01,10.80
2013,08,20,08,02,10.80
2013,08,20,08,03,10.80
2013,08,20,08,04,10.80
2013,08,20,08,05,10.80
2013,08,20,08,06,10.80
2013,08,20,08,07,10.80
2013,08,20,08,08,10.90
2013,08,20,08,09,10.90
2013,08,20,08,10,10.90
2013,08,20,08,11,10.90
2013,08,20,08,12,10.90
2013,08,20,08,13,11.00
2013,08,20,08,14,11.00
2013,08,20,08,15,11.00
2013,08,20,08,16,11.10
2013,08,20,08,17,11.10
2013,08,20,08,18,11.10
2013,08,20,08,19,11.20
2013,08,20,08,20,11.20
2013,08,20,08,21,11.30
2013,08,20,08,22,11.30
2013,08,20,08,23,11.30
2013,08,20,08,24,11.30
2013,08,20,08,25,11.40
2013,08,20,08,26,11.40
2013,08,20,08,27,11.40
2013,08,20,08,28,11.40
2013,08,20,08,29,11.40
2013,08,20,08,30,11.40
2013,08,20,08,31,11.50
2013,08,20,08,32,11.50
2013,08,20,08,33,11.50
2013,08,20,08,34,11.60
2013,08,20,08,35,11.60
2013,08,20,08,36,11.60
2013,08,20,08,37,11.60
2013,08,20,08,38,11.70
2013,08,20,08,39,11.70
2013,08,20,08,40,11.70
2013,08,20,08,41,11.70
2013,08,20,08,42,11.80
2013,08,20,08,43,11.80
2013,08,20,08,44,11.80
2013,08,20,08,45,11.80
2013,08,20,08,46,11.90
2013,08,20,08,47,11.90
2013,08,20,08,48,11.90
2013,08,20,08,49,11.90
2013,08,20,08,50,11.90
2013,08,20,08,51,11.90
2013,08,20,08,52,12.00
2013,08,20,08,53,12.00
2013,08,20,08,54,12.00
2013,08,20,08,55,12.10
2013,08,20,08,56,12.10
2013,08,20,08,57,12.20
2013,08,20,08,58,12.20
2013,08,20,08,59,12.20
2013,08,20,09,00,12.30
2013,08,20,09,01,12.30
2013,08,20,09,02,12.30
2013,08,20,09,03,12.30
2013,08,20,09,04,12.40
2013,08,20,09,05,12.40
2013,08,20,09,06,12.40
2013,08,20,09,07,12.50
2013,08,20,09,08,12.60
2013,08,20,09,09,12.60
2013,08,20,09,10,12.60
2013,08,20,09,11,12.60
2013,08,20,09,12,12.70
2013,08,20,09,13,12.70
2013,08,20,09,14,12.70
2013,08,20,09,15,12.80
2013,08,20,09,16,12.90
2013,08,20,09,17,13.00
2013,08,20,09,18,13.10
2013,08,20,09,19,13.20
2013,08,20,09,20,13.30
2013,08,20,09,21,13.40
2013,08,20,09,22,13.50
2013,08,20,09,23,13.60
2013,08,20,09,24,13.70
2013,08,20,09,25,13.80
2013,08,20,09,26,13.80
2013,08,20,09,27,13.90
2013,08,20,09,28,14.00
2013,08,20,09,29,14.00
2013,08,20,09,30,14.00
2013,08,20,09,31,14.00
2013,08,20,09,32,14.00
2013,08,20,09,33,14.00
2013,08,20,09,34,14.10
2013,08,20,09,35,14.10
2013,08,20,09,36,14.10
2013,08,20,09,37,14.20
2013,08,20,09,38,14.20
2013,08,20,09,39,14.20
2013,08,20,09,40,14.20
2013,08,20,09,41,14.20
2013,08,20,09,42,14.20
2013,08,20,09,43,14.30
2013,08,20,09,44,14.30
2013,08,20,09,45,14.30
2013,08,20,09,46,14.30
2013,08,20,09,47,14.30
2013,08,20,09,48,14.40
2013,08,20,09,49,14.40
2013,08,20,09,50,14.50
2013,08,20,09,51,14.50
2013,08,20,09,52,14.60
2013,08,20,09,53,14.70
2013,08,20,09,54,14.80
2013,08,20,09,55,14.90
2013,08,20,09,56,15.00
2013,08,20,09,57,15.10
2013,08,20,09,58,15.10
2013,08,20,09,59,15.20
2013,08,20,10,00,15.20
2013,08,20,10,01,15.20
2013,08,20,10,02,15.30
2013,08,20,10,03,15.30
2013,08,20,10,04,15.30
2013,08,20,10,05,15.20
2013,08,20,10,06,15.20
2013,08,20,10,07,15.20
2013,08,20,10,08,15.30
2013,08,20,10,09,15.30
2013,08,20,10,10,15.30
2013,08,20,10,11,15.40
2013,08,20,10,12,15.50
2013,08,20,10,13,15.50
2013,08,20,10,14,15.50
2013,08,20,10,15,15.50
2013,08,20,10,16,15.50
2013,08,20,10,17,15.50
2013,08,20,10,18,15.60
2013,08,20,10,19,15.60
2013,08,20,10,20,15.60
2013,08,20,10,21,15.70
2013,08,20,10,22,15.70
2013,08,20,10,23,15.80
2013,08,20,10,24,15.80
2013,08,20,10,25,15.90
2013,08,20,10,26,15.90
2013,08,20,10,27,16.00
2013,08,20,10,28,16.00
2013,08,20,10,29,16.00
2013,08,20,10,30,16.00
2013,08,20,10,31,16.10
2013,08,20,10,32,16.10
2013,08,20,10,33,16.10
2013,08,20,10,34,16.10
2013,08,20,10,35,16.00
2013,08,20,10,36,16.00
2013,08,20,10,37,16.10
2013,08,20,10,38,16.10
2013,08,20,10,39,16.10
2013,08,20,10,40,16.20
2013,08,20,10,41,16.20
2013,08,20,10,42,16.30
2013,08,20,10,43,16.40
2013,08,20,10,44,16.40
2013,08,20,10,45,16.50
2013,08,20,10,46,16.60
2013,08,20,10,47,16.70
2013,08,20,10,48,16.80
2013,08,20,10,49,17.00
2013,08,20,10,50,17.00
2013,08,20,10,51,17.10
2013,08,20,10,52,17.20
2013,08,20,10,53,17.20
2013,08,20,10,54,17.30
2013,08,20,10,55,17.30
2013,08,20,10,56,17.40
2013,08,20,10,57,17.50
2013,08,20,10,58,17.60
2013,08,20,10,59,17.60
2013,08,20,11,00,17.60
2013,08,20,11,01,17.60
2013,08,20,11,02,17.70
2013,08,20,11,03,17.80
2013,08,20,11,04,17.90
2013,08,20,11,05,18.00
2013,08,20,11,06,18.10
2013,08,20,11,07,18.10
2013,08,20,11,08,18.20
2013,08,20,11,09,18.20
2013,08,20,11,10,18.30
2013,08,20,11,11,18.30
2013,08,20,11,12,18.40
2013,08,20,11,13,18.40
2013,08,20,11,14,18.40
2013,08,20,11,15,18.40
2013,08,20,11,16,18.30
2013,08,20,11,17,18.30
2013,08,20,11,18,18.30
2013,08,20,11,19,18.30
2013,08,20,11,20,18.30
2013,08,20,11,21,18.30
2013,08,20,11,22,18.30
2013,08,20,11,23,18.40
2013,08,20,11,24,18.40
2013,08,20,11,25,18.40
2013,08,20,11,26,18.50
2013,08,20,11,27,18.60
2013,08,20,11,28,18.60
2013,08,20,11,29,18.70
2013,08,20,11,30,18.80
2013,08,20,11,31,18.80
2013,08,20,11,32,18.90
2013,08,20,11,33,19.00
2013,08,20,11,34,19.10
2013,08,20,11,35,19.10
2013,08,20,11,36,19.20
2013,08,20,11,37,19.30
2013,08,20,11,38,19.30
2013,08,20,11,39,19.40
2013,08,20,11,40,19.40
2013,08,20,11,41,19.40
2013,08,20,11,42,19.50
2013,08,20,11,43,19.60
2013,08,20,11,44,19.60
2013,08,20,11,45,19.60
2013,08,20,11,46,19.70
2013,08,20,11,47,19.60
2013,08,20,11,48,19.60
2013,08,20,11,49,19.60
2013,08,20,11,50,19.60
2013,08,20,11,51,19.50
2013,08,20,11,52,19.50
2013,08,20,11,53,19.50
2013,08,20,11,54,19.40
2013,08,20,11,55,19.50
2013,08,20,11,56,19.50
2013,08,20,11,57,19.60
2013,08,20,11,58,19.70
2013,08,20,11,59,19.80
2013,08,20,12,00,19.80
2013,08,20,12,01,19.80
2013,08,20,12,02,19.80
2013,08,20,12,03,19.80
2013,08,20,12,04,19.90
2013,08,20,12,05,19.90
2013,08,20,12,06,20.00
2013,08,20,12,07,20.00
2013,08,20,12,08,20.00
2013,08,20,12,09,20.10
2013,08,20,12,10,20.10
2013,08,20,12,11,20.10
2013,08,20,12,12,20.10
2013,08,20,12,13,20.20
2013,08,20,12,14,20.30
2013,08,20,12,15,20.30
2013,08,20,12,16,20.30
2013,08,20,12,17,20.30
2013,08,20,12,18,20.40
2013,08,20,12,19,20.40
2013,08,20,12,20,20.50
2013,08,20,12,21,20.60
2013,08,20,12,22,20.60
2013,08,20,12,23,20.70
2013,08,20,12,24,20.80
2013,08,20,12,25,20.90
2013,08,20,12,26,20.90
2013,08,20,12,27,20.90
2013,08,20,12,28,21.00
2013,08,20,12,29,21.10
2013,08,20,12,30,21.20
2013,08,20,12,31,21.20
2013,08,20,12,32,21.30
2013,08,20,12,33,21.30
2013,08,20,12,34,21.30
2013,08,20,12,35,21.40
2013,08,20,12,36,21.40
2013,08,20,12,37,21.50
2013,08,20,12,38,21.60
2013,08,20,12,39,21.60
2013,08,20,12,40,21.60
2013,08,20,12,41,21.70
2013,08,20,12,42,21.80
2013,08,20,12,43,21.80
2013,08,20,12,44,21.80
2013,08,20,12,45,21.80
2013,08,20,12,46,21.80
2013,08,20,12,47,21.90
2013,08,20,12,48,22.00
2013,08,20,12,49,22.00
2013,08,20,12,50,22.00
2013,08,20,12,51,21.90
2013,08,20,12,52,21.80
2013,08,20,12,53,21.80
2013,08,20,12,54,21.80
2013,08,20,12,55,21.90
2013,08,20,12,56,21.90
2013,08,20,12,57,21.90
2013,08,20,12,58,21.90
2013,08,20,12,59,22.00
2013,08,20,13,00,22.00
2013,08,20,13,01,22.00
2013,08,20,13,02,22.00
2013,08,20,13,03,22.00
2013,08,20,13,04,22.10
2013,08,20,13,05,22.20
2013,08,20,13,06,22.30
2013,08,20,13,07,22.30
2013,08,20,13,08,22.40
2013,08,20,13,09,22.50
2013,08,20,13,10,22.60
2013,08,20,13,11,22.60
2013,08,20,13,12,22.70
2013,08,20,13,13,22.70
2013,08,20,13,14,22.70
2013,08,20,13,15,22.70
2013,08,20,13,16,22.70
2013,08,20,13,17,22.70
2013,08,20,13,18,22.70
2013,08,20,13,19,22.70
2013,08,20,13,20,22.70
2013,08,20,13,21,22.70
2013,08,20,13,22,22.60
2013,08,20,13,23,22.60
2013,08,20,13,24,22.60
2013,08,20,13,25,22.60
2013,08,20,13,26,22.60
2013,08,20,13,27,22.60
2013,08,20,13,28,22.60
2013,08,20,13,29,22.60
2013,08,20,13,30,22.60
2013,08,20,13,31,22.60
2013,08,20,13,32,22.60
2013,08,20,13,33,22.60
2013,08,20,13,34,22.70
2013,08,20,13,35,22.70
2013,08,20,13,36,22.80
2013,08,20,13,37,22.80
2013,08,20,13,38,22.80
2013,08,20,13,39,22.80
2013,08,20,13,40,22.90
2013,08,20,13,41,23.00
2013,08,20,13,42,23.10
2013,08,20,13,43,23.30
2013,08,20,13,44,23.40
2013,08,20,13,45,23.40
2013,08,20,13,46,23.40
2013,08,20,13,47,23.40
2013,08,20,13,48,23.30
2013,08,20,13,49,23.30
2013,08,20,13,50,23.20
2013,08,20,13,51,23.20
2013,08,20,13,52,23.20
2013,08,20,13,53,23.10
2013,08,20,13,54,23.10
2013,08,20,13,55,23.00
2013,08,20,13,56,22.90
2013,08,20,13,57,22.90
2013,08,20,13,58,22.80
2013,08,20,13,59,22.80
2013,08,20,14,00,22.80
2013,08,20,14,01,22.80
2013,08,20,14,02,22.80
2013,08,20,14,03,22.80
2013,08,20,14,04,22.90
2013,08,20,14,05,23.00
2013,08,20,14,06,23.10
2013,08,20,14,07,23.20
2013,08,20,14,08,23.20
2013,08,20,14,09,23.20
2013,08,20,14,10,23.20
2013,08,20,14,11,23.20
2013,08,20,14,12,23.20
2013,08,20,14,13,23.20
2013,08,20,14,14,23.30
2013,08,20,14,15,23.30
2013,08,20,14,16,23.30
2013,08,20,14,17,23.30
2013,08,20,14,18,23.30
2013,08,20,14,19,23.30
2013,08,20,14,20,23.30
2013,08,20,14,21,23.40
2013,08,20,14,22,23.50
2013,08,20,14,23,23.60
2013,08,20,14,24,23.60
2013,08,20,14,25,23.60
2013,08,20,14,26,23.60
2013,08,20,14,27,23.50
2013,08,20,14,28,23.50
2013,08,20,14,29,23.50
2013,08,20,14,30,23.50
2013,08,20,14,31,23.60
2013,08,20,14,32,23.60
2013,08,20,14,33,23.60
2013,08,20,14,34,23.70
2013,08,20,14,35,23.70
2013,08,20,14,36,23.80
2013,08,20,14,37,23.80
2013,08,20,14,38,23.80
2013,08,20,14,39,23.80
2013,08,20,14,40,23.80
2013,08,20,14,41,23.80
2013,08,20,14,42,23.90
2013,08,20,14,43,24.10
2013,08,20,14,44,24.20
2013,08,20,14,45,24.30
2013,08,20,14,46,24.30
2013,08,20,14,47,24.40
2013,08,20,14,48,24.50
2013,08,20,14,49,24.60
2013,08,20,14,50,24.50
2013,08,20,14,51,24.40
2013,08,20,14,52,24.30
2013,08,20,14,53,24.20
2013,08,20,14,54,24.20
2013,08,20,14,55,24.10
2013,08,20,14,56,24.20
2013,08,20,14,57,24.10
2013,08,20,14,58,24.10
2013,08,20,14,59,24.20
2013,08,20,15,00,24.20
2013,08,20,15,01,24.40
2013,08,20,15,02,24.50
2013,08,20,15,03,24.70
2013,08,20,15,04,24.80
2013,08,20,15,05,24.90
2013,08,20,15,06,25.00
2013,08,20,15,07,25.10
2013,08,20,15,08,25.10
2013,08,20,15,09,25.20
2013,08,20,15,10,25.20
2013,08,20,15,11,25.30
2013,08,20,15,12,25.30
2013,08,20,15,13,25.30
2013,08,20,15,14,25.30
2013,08,20,15,15,25.30
2013,08,20,15,16,25.30
2013,08,20,15,17,25.20
2013,08,20,15,18,25.20
2013,08,20,15,19,25.20
2013,08,20,15,20,25.10
2013,08,20,15,21,25.00
2013,08,20,15,22,24.90
2013,08,20,15,23,24.90
2013,08,20,15,24,24.80
2013,08,20,15,25,24.80
2013,08,20,15,26,24.80
2013,08,20,15,27,24.70
2013,08,20,15,28,24.70
2013,08,20,15,29,24.80
2013,08,20,15,30,24.80
2013,08,20,15,31,24.90
2013,08,20,15,32,25.00
2013,08,20,15,33,24.90
2013,08,20,15,34,24.80
2013,08,20,15,35,24.70
2013,08,20,15,36,24.60
2013,08,20,15,37,24.60
2013,08,20,15,38,24.50
2013,08,20,15,39,24.50
2013,08,20,15,40,24.50
2013,08,20,15,41,24.60
2013,08,20,15,42,24.70
2013,08,20,15,43,24.70
2013,08,20,15,44,24.80
2013,08,20,15,45,24.90
2013,08,20,15,46,24.90
2013,08,20,15,47,24.90
2013,08,20,15,48,24.90
2013,08,20,15,49,24.80
2013,08,20,15,50,24.70
2013,08,20,15,51,24.80
2013,08,20,15,52,24.90
2013,08,20,15,53,24.90
2013,08,20,15,54,25.00
2013,08,20,15,55,25.10
2013,08,20,15,56,25.20
2013,08,20,15,57,25.30
2013,08,20,15,58,25.30
2013,08,20,15,59,25.40
2013,08,20,16,00,25.30
2013,08,20,16,01,25.30
2013,08,20,16,02,25.30
2013,08,20,16,03,25.40
2013,08,20,16,04,25.50
2013,08,20,16,05,25.60
2013,08,20,16,06,25.70
2013,08,20,16,07,25.80
2013,08,20,16,08,25.90
2013,08,20,16,09,25.80
2013,08,20,16,10,25.70
2013,08,20,16,11,25.60
2013,08,20,16,12,25.50
2013,08,20,16,13,25.50
2013,08,20,16,14,25.40
2013,08,20,16,15,25.40
2013,08,20,16,16,25.40
2013,08,20,16,17,25.30
2013,08,20,16,18,25.30
2013,08,20,16,19,25.20
2013,08,20,16,20,25.20
2013,08,20,16,21,25.20
2013,08,20,16,22,25.10
2013,08,20,16,23,24.90
2013,08,20,16,24,24.80
2013,08,20,16,25,24.70
2013,08,20,16,26,24.70
2013,08,20,16,27,24.80
2013,08,20,16,28,24.80
2013,08,20,16,29,24.80
2013,08,20,16,30,24.90
2013,08,20,16,31,24.90
2013,08,20,16,32,24.90
2013,08,20,16,33,24.80
2013,08,20,16,34,24.80
2013,08,20,16,35,24.80
2013,08,20,16,36,24.90
2013,08,20,16,37,24.90
2013,08,20,16,38,24.80
2013,08,20,16,39,24.80
2013,08,20,16,40,24.80
2013,08,20,16,41,24.80
2013,08,20,16,42,24.90
2013,08,20,16,43,25.00
2013,08,20,16,44,25.10
2013,08,20,16,45,25.10
2013,08,20,16,46,25.10
2013,08,20,16,47,25.10
2013,08,20,16,48,25.20
2013,08,20,16,49,25.20
2013,08,20,16,50,25.30
2013,08,20,16,51,25.30
2013,08,20,16,52,25.30
2013,08,20,16,53,25.40
2013,08,20,16,54,25.50
2013,08,20,16,55,25.60
2013,08,20,16,56,25.60
2013,08,20,16,57,25.50
2013,08,20,16,58,25.40
2013,08,20,16,59,25.30
2013,08,20,17,00,25.20
2013,08,20,17,01,25.20
2013,08,20,17,02,25.10
2013,08,20,17,03,25.10
2013,08,20,17,04,25.10
2013,08,20,17,05,25.00
2013,08,20,17,06,24.80
2013,08,20,17,07,24.60
2013,08,20,17,08,24.50
2013,08,20,17,09,24.40
2013,08,20,17,10,24.40
2013,08,20,17,11,24.40
2013,08,20,17,12,24.50
2013,08,20,17,13,24.50
2013,08,20,17,14,24.70
2013,08,20,17,15,24.80
2013,08,20,17,16,25.00
2013,08,20,17,17,25.10
2013,08,20,17,18,25.10
2013,08,20,17,19,25.20
2013,08,20,17,20,25.20
2013,08,20,17,21,25.30
2013,08,20,17,22,25.40
2013,08,20,17,23,25.50
2013,08,20,17,24,25.50
2013,08,20,17,25,25.50
2013,08,20,17,26,25.40
2013,08,20,17,27,25.30
2013,08,20,17,28,25.10
2013,08,20,17,29,25.10